469P/PanSTARRS (2008)

Japanese version
Home page
Updated on October 5, 2023

---------------------------------------------------------------------

* Profile

* Orbital Elements

                    Epoch = 2008 Apr.  4.0 TT
     T = 2008 Mar. 27.18204 TT        Peri. =  60.90568
     e = 0.2869197                    Node  = 181.78845 2000.0
     q = 3.3311264 AU                 Incl. =  19.86243
       a =  4.6714603 AU   n = 0.09761691   P =  10.10 years

* Magnitudes Graph

        H = 15.0  G = 0.15

---------------------------------------------------------------------

The orbital elements are printed on CBET 5284.
The magnitudes graphs are made with Comet for Windows.

---------------------------------------------------------------------

Copyright(C) Seiichi Yoshida (comet@aerith.net). All rights reserved.